Location: Juzet
(42.9779°N, 0.7597°E)
Time: 08:41:44
(UTC+00:00)

Cosmos 1697 Rocket - Pass Details

Date: 14 July 2020
Orbit: 834 x 842 km, 71.0° (Epoch: 04 August)

Event Time Altitude Azimuth Distance (km) Brightness Sun altitude
Rises 03:53:54 0° 314° (NW) 3,391 5.8 -6.4°
Reaches altitude 10° 03:58:11 10° 283° (WNW) 2,448 4.7 -5.8°
Maximum altitude 03:59:57 12° 264° (W) 2,338 4.5 -5.5°
Drops below altitude 10° 04:01:42 10° 246° (WSW) 2,441 4.5 -5.3°
Enters shadow 04:03:53 - 227° (SW) 2,822 4.7 -5.0°
